Regional Weather Roundup
Issued by NWS

Home | Current Version | Previous Version | Graphics & Text | Print | Product List | Glossary On
Versions: 1 2 3 4 5 6 7 8 9 10 11 12 13 14 15 16 17 18 19 20 21 22 23 24 25 26 27 28 29 30 31 32 33 34 35 36 37 38 39 40 41 42 43 44 45 46 47 48 49 50
000
ASUS45 KTFX 181619
RWRMT
MONTANA HOURLY WEATHER ROUNDUP
NATIONAL WEATHER SERVICE GREAT FALLS MT
919 AM MST THU DEC 18 2014

NOTE: "FAIR" INDICATES FEW OR NO CLOUDS BELOW 12000 FEET WITH NO
SIGNIFICANT WEATHER AND/OR OBSTRUCTIONS TO VISIBILITY.

* THESE STATIONS ARE NOT UNDER NWS QUALITY CONTROL. THEY DO NOT
   REPORT WEATHER SUCH AS PRECIPITATION OR FOG.

MTZ001>007-043-181700-
WEST OF THE DIVIDE
CITY           SKY/WX    TMP DP  RH WIND       PRES   REMARKS
KALISPELL      FOG       30  28  92 CALM      29.98R
MISSOULA       CLOUDY    28  27  96 CALM      30.03R
BUTTE          CLOUDY    10   9  96 CALM      30.01R
MULLAN PASS    LGT SNOW  28  27  96 VRB5      29.90S VSB M1/4 WCI  22
* ANACONDA     PTSUNNY   27  18  69 SE14       N/A   WCI  16
* ESSEX        N/A       28  27  96 N/A        N/A
* EUREKA APT   PTCLDY    28  27  96 CALM      29.99R
* HAMILTON APT PTSUNNY   36  23  59 S10       30.00R WCI  29
* LINCOLN      N/A       20  18  92 SE1        N/A
* LOOKOUT PASS N/A       31  31 100 S1         N/A
* POLSON       N/A       28  27  96 N/A        N/A
* RONAN APT    CLOUDY    30  28  92 N/A        N/A
* SEELEY LAKE  N/A       23  21  92 NE1        N/A
* THOMP F APT  CLOUDY    20  16  84 N4         N/A
$$

MTZ008-052>055-181700-
SOUTHWEST MONTANA
CITY           SKY/WX    TMP DP  RH WIND       PRES   REMARKS
BOZEMAN        CLOUDY    18  16  92 CALM      30.04R
DILLON         CLOUDY    21  14  74 S7        30.03S WCI  12
* W YELLOWSTON PTCLDY    13  10  88 N/A        N/A
* THREE FORKS  PTCLDY    14 -11  31 N/A        N/A
* BOULDER HILL N/A       20  13  74 SW12       N/A   WCI   8
* MONIDA PASS  N/A       18  18 100 E9         N/A   WCI   7
* RAYNOLDS PAS N/A        7  -2  66 SW5        N/A   WCI  -2
* WHITEHALL    N/A       17  12  81 NW10G15    N/A   WCI   5
* WISE RIVER   N/A        8   4  84 W4         N/A
$$

MTZ009>010-012-014-046-048-049-054-181700-
EAST SLOPES AND CENTRAL MONTANA
CITY           SKY/WX    TMP DP  RH WIND       PRES   REMARKS
CUT BANK       CLOUDY    32  28  85 W9        29.85S WCI  24
GREAT FALLS    PTCLDY    32  23  69 SW16      29.90S WCI  21
HELENA         PTCLDY    23  19  85 CALM      30.02R
MALMSTROM AFB  PTSUNNY   32  27  82 SW21      29.90F WCI  20
* CONRAD       PTCLDY    28  27  96 W6         N/A   WCI  21
* DEARBORN     N/A       34  22  61 S8         N/A   WCI  27
* EAST GLACIER N/A       33  28  82 W14G22     N/A   WCI  23
* MONARCH      N/A       33  17  52 SW12G17    N/A   WCI  24
* PENDROY      N/A       27  23  85 W1         N/A
* ROGERS PASS  N/A       28  21  75 SE8G14     N/A   WCI  20
* SWEET GRASS  N/A       29  29 100 W14        N/A   WCI  18
* WHITE SULPH  N/A       22  16  78 S4G17      N/A
$$

MTZ011-013-016-021-035-040-045-047-050-051-181700-
NORTH CENTRAL MONTANA
CITY           SKY/WX    TMP DP  RH WIND       PRES   REMARKS
HAVRE          PTCLDY    14  10  84 SW6       29.93R WCI   5
LEWISTOWN      CLOUDY    37  25  62 SW14      29.91S WCI  28
* N BAR RANCH  CLOUDY    28  23  81 VRB5      29.92S WCI  22
* CHINOOK      SUNNY     21  21 100 CALM      29.94S VSB M1/4
* CHESTER      N/A       16  13  88 W1         N/A
* DENTON       N/A       32  23  69 S6         N/A   WCI  26
* GEYSER       N/A       36  21  54 W3         N/A
* JUDITH GAP   N/A       29  23  78 SE8        N/A   WCI  21
* LOMA         N/A       19  17  92 NE2        N/A
$$

MTZ017>020-022>027-061-062-181700-
NORTHEAST MONTANA
CITY           SKY/WX    TMP DP  RH WIND       PRES   REMARKS
GLASGOW        FOG       25  23  92 S3        29.94F VSB 2 1/2
GLENDIVE       PTSUNNY   27  21  78 SW3       29.98R
JORDAN         SUNNY     19  18  96 W3        29.94R
SIDNEY         CLOUDY    25  21  85 CALM      30.01S
WOLF POINT     CLOUDY    25  21  85 E5        29.98S WCI  19
* BEAVER HILL  N/A       25  23  92 SW5        N/A   WCI  19
* CIRCLE       N/A       24  22  92 N/A        N/A
* LINDSAY DVD  N/A       20  19  96 N/A        N/A
* NAVAJO       N/A       22  20  92 SW6        N/A   WCI  14
* PLENTYWOOD A SUNNY     21  19  92 S5        29.96F WCI  14
* POPLAR APT   SUNNY     25  23  92 SE3       29.98S VSB 2
* SACO         N/A       26  25  96 S6         N/A   WCI  19
$$

MTZ028>042-056>058-181700-
SOUTHCENTRAL AND SOUTHEAST MONTANA
CITY           SKY/WX    TMP DP  RH WIND       PRES   REMARKS
BAKER          CLOUDY    28  27  96 NW3       29.96R
BILLINGS       PTSUNNY   25  18  75 SW17      29.98R WCI  12
LIVINGSTON     PTCLDY    36  18  48 SW22G30   29.98R WCI  25
MILES CITY     SUNNY     25  21  85 S7        29.97R WCI  17
* FORSYTH APT  PTCLDY    25  21  85 W3        29.98R
* LAUREL APT   PTSUNNY   25  14  63 S8         N/A   WCI  16
* ROUNDUP APT  PTSUNNY   30  19  64 S8         N/A   WCI  22
* ALZADA       N/A       22  20  92 SW1        N/A
* HYSHAM       N/A       26  16  66 W7G12      N/A   WCI  18
* LAME DEER    N/A       28  20  72 N/A        N/A
* REED POINT   N/A       18  17  96 N/A        N/A
* ROSCOE HILL  N/A       34   4  28 S12G26     N/A   WCI  25
$$

REGIONAL REPORTS...DAKOTAS
CITY           SKY/WX    TMP DP  RH WIND       PRES   REMARKS
WILLISTON      CLOUDY    21  18  88 S3        30.00S
DICKINSON      CLOUDY    25  19  78 S6        29.95S WCI  18
BEACH          CLOUDY    27  27 100 W8        29.97R WCI  19
CROSBY         FOG       21  21 100 S7        30.00F WCI  12
TIOGA          FOG       18  18 100 S8        30.02S WCI   8
WATFORD CITY   FOG       21  19  92 SE7       29.99R WCI  12
BISMARCK       FOG       19  18  96 SE9       30.09S WCI   8
GRAND FORKS    CLOUDY    10   9  96 S7        30.24S WCI  -1
FARGO          PTCLDY    14   9  80 SE9       30.25S WCI   2
BUFFALO SD     PTCLDY    25  21  85 S3        29.90R
RAPID CITY     FOG       19  19 100 SE5       30.00S VSB M1/4 WCI  12
$$

REGIONAL REPORTS...WYOMING/IDAHO/WASHINGTON
CITY           SKY/WX    TMP DP  RH WIND       PRES   REMARKS
GILLETTE       PTCLDY    27  18  69 SW15      29.99R WCI  15
SHERIDAN       PTCLDY    19  12  74 CALM      29.98R
CODY           PTCLDY    28  19  69 SW8       30.01R WCI  20
YELLOWSTONE LA PTCLDY    19  16  88 CALM      30.07R
SALMON         PTCLDY    21  18  88 CALM      30.11S
MULLAN PASS    LGT SNOW  28  27  96 VRB5      29.90S VSB M1/4 WCI  22
SAND POINT     LGT RAIN  32  32 100 CALM      29.99S VSB 1 1/2
SPOKANE        FOG       36  34  92 SW5       29.98R VSB 3    WCI  32
$$

REGIONAL REPORTS...ALBERTA
CITY           SKY/WX    TMP DP  RH WIND       PRES   REMARKS
CALGARY        PTSUNNY   25  18  75 VRB2      29.80S
LETHBRIDGE     PTSUNNY   28  25  89 SW9       29.83S WCI  19
MEDICINE HAT   SUNNY     10   9  96 NE6       29.87S
EDMONTON       FOG       10   7  88 SE6       29.83S
$$

REGIONAL REPORTS...SASKATCHEWAN
CITY           SKY/WX    TMP DP  RH WIND       PRES   REMARKS
SWIFT CURRENT  FOG       21  19  92 SW13      29.85S VSB 1/4  WCI   8
MOOSE JAW      FOG       27  25  92 S5        29.92S WCI  21
REGINA         FOG       19  19 100 SE12      29.95S WCI   6

$$




USA.gov is the U.S. government's official web portal to all federal, state and local government web resources and services.